Theta_e
349 345 343 338 336 336 335 335 328 316 315 316 316 317 317 318 319 319 318 317 316 316 316 315 314 313 311 311 311 311 311 310 310 311 312 312 311 314 321 328 329 329 330 331 333 335 335 335 336 336 337 336 337 336 336 336 336 336 336 336 336 337 337 337 337 337 336 336 336 335 335 336 335 335 335 335 334 333 332 331 330 330 329 328 323
348 345 343 337 336 336 335 335 327 315 315 315 315 316 316 317 316 316 316 315 314 314 313 311 311 311 311 311 311 311 311 310 310 311 312 312 311 312 318 326 329 329 330 332 334 335 336 336 337 337 337 336 336 336 336 336 336 336 337 336 336 336 336 336 336 336 336 336 336 336 336 335 335 335 334 334 333 332 330 328 329 329 329 329 324
347 345 341 336 337 335 335 335 326 315 315 315 316 316 316 316 315 315 315 314 313 312 311 311 311 311 311 311 311 311 311 311 311 311 312 312 312 312 315 323 328 329 330 332 333 335 336 336 336 337 337 337 337 337 337 337 336 336 337 337 337 336 336 336 336 336 336 336 336 336 336 335 335 334 334 333 331 330 327 325 326 326 325 325 320
346 344 339 337 337 335 335 334 325 314 315 315 315 315 315 315 314 315 314 314 313 312 311 311 311 311 311 310 311 311 311 311 311 311 312 312 312 312 313 321 328 329 330 332 333 334 335 336 336 336 336 337 337 337 337 337 337 336 336 336 336 335 335 335 334 335 335 335 335 335 334 332 332 331 331 328 326 324 321 319 321 321 319 318 314
346 342 339 337 336 335 335 333 325 316 315 315 315 314 314 314 314 314 314 313 313 312 311 311 311 311 311 310 311 311 312 312 311 311 311 312 311 313 312 320 328 328 330 332 333 334 335 335 336 336 336 337 337 337 337 336 336 335 335 334 333 332 332 332 331 331 330 329 329 329 328 327 327 326 324 321 319 318 316 316 317 317 315 313 312
344 340 339 337 336 335 334 334 326 318 317 315 315 314 314 314 314 314 314 314 313 312 311 311 311 310 311 310 311 312 313 312 312 311 311 312 311 313 311 319 328 328 330 333 334 334 335 336 336 336 336 337 337 336 336 336 335 335 334 332 329 327 327 328 328 327 324 322 320 319 320 321 320 319 317 314 313 314 313 313 315 317 316 316 318
341 339 338 336 336 335 334 334 329 322 318 317 316 315 314 314 314 315 314 314 313 313 312 311 311 311 311 310 311 312 313 313 313 313 312 312 311 312 311 318 326 327 329 333 333 333 333 334 334 334 334 334 334 334 334 334 334 334 332 326 322 320 320 320 319 319 317 315 312 312 313 314 313 315 315 312 312 313 313 316 321 324 323 319 317
340 338 337 336 336 335 335 334 331 325 321 321 319 316 314 313 315 315 315 315 314 313 312 312 312 311 311 311 311 312 313 313 313 314 313 313 312 312 312 315 321 324 326 329 330 330 330 331 331 330 330 330 330 330 330 330 329 327 325 320 316 316 315 315 314 312 311 310 309 309 310 310 309 312 314 313 315 314 312 319 324 324 321 316 314
340 338 337 336 336 335 335 335 334 329 325 324 322 318 313 313 314 315 315 315 315 314 313 313 312 312 312 312 311 312 312 312 313 314 314 314 312 312 312 314 318 321 324 325 327 328 328 328 328 328 328 327 327 327 326 325 322 319 318 316 315 314 314 313 312 310 309 308 309 309 309 309 308 309 312 311 312 310 309 316 318 316 314 312 313
341 339 337 337 336 336 335 335 335 332 329 326 324 319 316 313 312 314 314 314 314 314 314 314 313 313 312 312 312 312 312 312 313 313 315 314 313 312 312 314 317 321 323 324 326 327 328 328 327 327 326 325 324 324 322 320 317 316 316 315 315 314 313 312 310 309 309 308 309 310 309 309 309 311 314 312 310 309 309 311 315 318 318 316 315
342 340 338 336 336 336 335 335 335 334 332 328 324 321 320 316 313 313 313 313 314 314 314 314 314 313 313 313 312 312 312 312 312 313 314 314 312 311 311 313 317 321 323 325 326 327 327 327 326 325 322 321 320 319 319 318 317 317 317 316 315 313 312 311 310 309 308 309 309 309 310 309 309 313 316 318 319 317 315 317 321 325 324 323 322
342 340 338 337 336 335 335 335 335 336 334 330 326 323 324 322 318 315 314 313 313 314 314 314 314 313 313 312 312 312 313 312 312 312 313 314 312 311 311 313 317 321 324 325 326 326 327 326 325 322 318 318 318 318 318 318 319 320 318 315 313 312 311 310 309 309 308 309 309 309 309 309 312 316 320 324 325 323 322 323 323 324 325 324 323
342 340 338 336 335 336 335 335 336 336 336 333 328 325 326 326 324 321 318 315 313 313 312 313 313 313 314 313 312 312 313 313 312 312 312 313 312 311 311 312 316 320 323 326 326 326 326 326 324 321 318 319 320 320 321 321 322 321 318 314 311 311 310 310 309 309 309 309 310 310 310 309 313 319 321 322 322 321 321 320 319 318 319 318 317
342 339 336 335 335 335 335 335 336 336 336 335 332 327 326 327 327 326 323 321 319 317 315 314 313 313 313 313 313 313 312 312 312 312 312 313 313 311 310 312 315 319 323 325 327 326 326 325 323 320 319 320 322 323 324 324 324 321 318 314 310 309 309 310 310 309 310 310 310 310 311 311 312 315 316 315 315 315 314 313 313 313 311 311 312
340 337 334 334 334 334 334 335 335 336 337 337 336 331 327 325 327 328 327 326 326 324 323 321 319 316 314 313 313 313 313 312 312 313 313 313 314 313 310 311 314 318 321 325 326 326 326 325 323 321 320 322 324 325 326 325 324 321 317 313 309 308 309 309 310 310 310 310 311 312 312 311 311 312 311 311 311 312 311 311 311 310 310 310 310
336 335 333 333 332 333 333 334 334 335 337 337 337 335 331 326 324 329 329 328 328 328 327 327 325 323 320 316 313 314 313 313 313 313 313 313 315 314 312 310 312 316 319 323 325 325 326 324 323 322 321 323 325 326 327 325 324 321 317 313 310 308 309 309 310 310 311 311 312 312 312 312 312 312 312 312 312 311 311 310 310 310 310 310 310
334 333 332 332 331 332 332 333 334 335 337 338 338 337 336 331 325 326 331 330 329 330 329 329 328 326 325 319 316 315 314 319 318 314 314 314 315 315 314 310 310 315 317 320 323 324 324 323 322 323 323 324 326 327 326 325 324 322 318 315 311 308 309 309 310 310 310 311 311 312 312 312 312 312 312 311 311 311 310 310 310 310 310 310 310
333 332 331 331 330 331 332 332 333 334 336 338 339 338 338 337 331 326 329 331 331 331 331 330 329 327 326 322 319 315 317 326 324 319 317 316 317 316 316 313 308 311 315 318 321 323 323 321 321 323 325 324 325 326 326 326 325 322 319 317 313 309 308 308 309 309 310 310 310 311 311 311 311 311 311 310 310 310 310 310 310 310 310 310 310
331 331 330 330 329 329 330 331 332 333 335 337 338 339 339 338 336 329 327 330 332 332 332 331 329 327 326 325 322 320 324 328 326 325 323 319 319 319 318 316 310 309 312 317 320 321 322 319 318 323 326 326 325 324 326 327 325 323 321 319 317 313 309 307 307 308 309 309 309 310 310 310 310 310 310 310 309 309 309 309 309 309 309 309 309
330 330 329 329 328 327 327 329 332 333 335 337 338 339 339 339 338 334 328 329 331 332 333 332 328 327 327 327 327 330 332 331 329 329 327 323 322 323 321 319 314 309 309 314 319 321 321 318 318 322 326 328 325 324 326 326 325 323 322 321 320 319 315 311 308 307 308 307 308 308 308 308 308 308 308 308 308 307 307 307 307 308 308 308 308
330 329 328 326 326 325 324 326 331 333 334 336 338 339 339 339 339 336 331 329 330 332 333 331 328 328 329 330 331 333 334 333 332 330 329 327 326 326 324 321 317 312 308 312 319 321 320 318 318 322 326 328 326 325 326 326 325 324 323 322 322 323 321 318 313 309 308 308 308 307 307 307 307 307 307 307 307 306 306 306 307 307 307 307 307
329 326 325 324 325 324 323 326 330 333 335 336 338 339 340 340 339 338 334 331 330 331 332 331 329 329 330 331 331 331 332 332 332 331 331 330 328 328 327 324 319 315 309 311 319 322 321 319 319 322 326 328 327 326 326 325 326 324 323 322 323 324 324 323 319 314 310 310 310 309 308 308 307 307 307 307 307 307 306 306 306 306 306 306 306
330 325 324 324 326 325 324 327 330 332 334 336 337 338 339 339 339 338 337 334 332 331 332 331 331 330 331 332 331 330 330 331 332 331 331 330 329 330 330 326 321 317 312 312 320 322 322 321 321 323 325 327 327 327 326 325 325 324 322 322 322 324 325 325 323 318 314 312 313 312 311 310 308 308 307 307 307 307 307 307 306 306 306 306 306
332 327 324 325 327 325 326 327 329 331 332 334 335 336 337 338 339 338 338 336 333 332 332 332 332 332 331 332 331 331 330 330 332 332 332 331 330 331 330 326 323 319 314 313 319 323 324 325 323 323 325 326 326 326 326 326 325 324 323 322 323 324 326 327 324 321 319 317 316 315 314 312 310 309 308 308 308 307 307 307 307 307 306 306 306
333 329 325 325 327 325 326 327 328 330 329 331 331 334 336 337 338 338 338 337 335 334 334 333 332 332 332 332 332 331 331 330 331 333 332 331 330 330 330 327 324 321 316 313 317 324 327 329 327 325 325 325 325 326 325 325 325 324 324 323 323 325 326 328 326 322 321 320 319 318 317 315 313 311 309 308 307 307 307 307 308 307 307 307 307
333 328 325 326 327 327 327 327 328 329 327 327 327 331 334 335 337 337 337 337 335 335 334 334 333 333 331 331 332 332 332 331 331 333 331 329 327 326 327 327 325 323 319 314 317 325 329 330 329 327 326 325 325 326 325 325 324 324 325 324 324 325 326 328 327 324 322 321 322 321 320 318 315 312 310 308 307 308 308 308 308 308 309 309 309
334 328 327 327 328 328 327 327 328 327 325 323 323 326 329 332 334 335 336 335 335 335 335 334 333 332 331 331 333 333 333 333 332 333 332 330 327 322 321 324 325 324 322 317 317 324 330 330 330 329 326 325 326 326 326 326 325 324 325 326 327 326 327 328 327 326 325 323 322 322 321 319 317 313 310 309 308 309 309 310 310 310 311 311 312
334 329 328 328 328 328 327 327 327 326 324 322 321 321 323 327 329 331 332 333 334 334 333 333 332 331 331 332 333 333 333 333 333 333 333 332 329 324 319 320 323 324 324 321 318 322 329 330 329 329 328 326 326 326 327 327 326 325 325 327 328 328 328 328 328 327 327 325 323 322 320 319 317 312 309 310 310 311 312 313 313 313 313 314 315
334 330 329 328 328 328 327 327 327 327 326 324 322 320 320 321 323 324 326 328 330 331 332 332 331 331 332 333 333 333 332 332 332 331 332 331 329 326 322 320 320 321 323 325 320 318 324 329 329 329 329 328 327 327 327 327 327 327 328 328 329 329 329 329 329 328 327 326 324 322 320 318 316 313 311 312 314 315 316 317 317 317 317 318 318
332 331 330 329 329 329 328 328 329 329 328 326 324 323 322 320 320 321 322 325 327 329 331 332 331 331 332 333 333 333 332 331 331 330 331 331 330 328 325 324 321 319 322 326 324 318 319 326 329 329 329 328 328 328 328 327 327 328 329 329 329 329 329 329 329 329 328 326 324 322 319 316 314 316 318 318 319 319 320 321 320 320 321 321 321
331 331 331 330 330 329 329 329 330 330 329 329 327 325 324 322 321 320 322 325 327 329 330 331 331 331 331 332 332 333 332 331 330 330 331 332 331 329 327 326 324 321 321 325 326 321 317 323 329 330 330 329 329 328 328 328 328 329 329 330 330 329 330 330 330 329 327 326 324 320 317 314 313 317 321 321 322 322 323 325 325 324 324 323 323
332 332 332 331 331 330 330 330 330 330 331 331 329 327 325 324 323 321 321 324 326 328 329 330 330 330 330 330 330 331 332 331 330 330 331 332 332 329 327 326 326 323 321 324 327 324 319 322 327 330 330 330 329 328 328 328 328 328 328 330 330 330 331 330 330 329 327 326 322 317 315 313 312 315 319 320 323 325 326 328 328 328 328 327 326
332 333 333 332 332 330 330 330 330 330 331 331 331 329 327 325 324 323 322 322 324 326 327 328 329 329 330 329 329 330 331 331 330 329 331 332 332 330 328 327 326 323 321 323 327 326 323 323 327 330 330 329 329 328 327 327 327 328 329 329 329 330 330 330 330 328 327 325 320 316 315 313 312 313 317 321 324 326 326 327 328 329 329 329 329
333 333 334 334 333 332 330 330 330 330 330 331 331 330 329 327 326 325 324 323 324 324 325 325 326 327 328 328 328 329 330 331 330 329 330 332 332 330 329 328 326 321 319 322 326 327 326 325 327 329 328 327 328 328 328 328 328 329 329 330 329 329 329 329 329 328 327 325 320 316 315 314 314 315 318 322 324 325 326 327 327 328 328 328 328
336 334 333 332 333 334 333 332 330 329 330 331 332 331 331 329 328 328 328 326 325 325 325 326 326 326 326 326 327 328 330 331 330 329 330 331 333 331 329 329 326 321 318 321 326 327 327 326 326 326 325 326 328 329 330 330 329 329 329 330 330 329 329 329 329 328 328 325 319 317 317 316 317 319 321 323 325 325 326 327 327 327 326 327 328
338 336 333 331 332 334 334 334 332 330 329 330 332 332 332 332 331 331 330 330 329 328 327 327 327 327 327 326 326 327 329 330 331 330 330 331 332 332 330 330 327 322 319 321 326 328 327 328 327 327 326 327 329 330 330 329 329 329 329 330 330 329 329 329 329 329 328 324 319 319 319 319 321 323 324 325 326 326 326 326 326 325 326 326 327
338 337 335 332 331 333 335 336 334 333 331 330 331 332 333 334 333 333 332 332 332 331 330 329 328 328 329 329 327 327 328 330 331 331 330 329 331 332 331 330 328 324 321 322 327 328 328 328 328 328 328 329 329 329 329 329 329 329 329 330 330 329 329 329 329 329 328 323 321 322 322 323 324 324 325 325 324 324 324 323 323 323 323 324 326
339 338 336 333 331 333 335 336 336 335 334 332 332 332 333 334 335 334 333 333 332 333 332 331 330 329 330 330 330 330 329 329 330 331 330 329 330 331 331 330 329 326 325 325 327 328 328 328 328 328 328 329 329 328 328 328 329 329 330 330 330 329 329 329 329 329 327 323 322 323 324 325 325 324 324 323 323 322 322 322 321 320 319 321 323
338 337 336 332 331 333 335 336 336 336 336 336 335 334 335 335 336 335 334 333 333 333 333 333 332 331 331 331 332 332 331 331 331 331 331 329 330 331 331 331 329 327 327 328 327 327 327 327 328 328 329 329 329 329 329 329 329 330 330 330 330 330 329 329 329 328 326 323 324 324 324 325 325 325 324 323 322 322 321 320 319 318 318 319 322
338 337 336 334 334 335 336 337 337 337 337 337 337 336 335 335 336 336 335 333 333 333 334 334 333 333 333 332 333 332 331 332 332 332 331 331 330 330 330 331 330 328 327 328 327 327 327 327 328 329 329 330 330 330 331 330 330 330 330 329 330 329 329 329 329 328 326 325 325 325 325 325 325 325 324 323 323 321 319 318 317 317 317 319 322
339 337 336 335 335 336 337 337 336 337 336 337 336 335 335 335 335 335 335 334 333 334 333 334 333 333 334 334 333 331 331 332 332 332 332 332 331 330 331 331 331 329 328 328 327 328 329 329 329 329 329 329 330 330 330 330 330 330 330 329 329 329 329 329 329 328 327 326 326 326 326 326 326 325 324 323 323 322 320 319 318 317 318 319 321
339 337 334 333 334 335 337 336 336 336 335 336 335 335 335 335 334 334 335 334 333 333 333 333 333 333 334 335 334 332 332 332 332 332 332 332 331 331 331 331 331 330 329 328 327 328 329 327 327 329 329 329 330 330 329 329 330 330 329 329 329 329 329 329 329 329 328 327 327 326 327 326 325 325 323 323 323 323 323 321 318 317 317 318 319
339 336 334 333 333 336 337 336 335 335 335 335 335 335 335 334 334 335 335 335 334 334 334 334 333 333 333 334 334 332 332 332 332 332 332 331 331 331 331 331 331 331 329 328 327 328 327 325 326 328 329 330 330 330 329 329 330 330 329 328 328 328 328 328 328 329 329 328 327 327 327 326 325 324 323 323 324 324 323 320 316 315 316 317 318
338 335 334 334 335 337 338 337 335 334 335 335 335 335 335 335 335 335 335 336 335 334 335 335 334 334 334 334 334 333 331 332 332 331 332 332 331 330 331 332 332 330 328 327 327 327 326 325 326 326 327 329 331 330 330 329 329 329 329 328 328 328 328 328 328 329 328 328 328 327 327 326 325 324 323 324 325 324 322 319 316 315 315 316 318
337 336 336 335 335 336 337 337 335 334 334 333 334 334 335 336 335 335 336 336 335 335 335 335 334 334 334 335 334 333 331 330 331 331 332 331 328 327 330 331 330 328 326 326 328 328 326 325 326 326 326 329 330 330 330 329 329 329 329 328 328 328 327 328 328 328 328 327 328 327 327 326 326 325 324 324 325 324 322 319 318 317 315 315 316
337 337 337 337 336 336 336 337 335 334 334 334 334 334 334 334 334 335 335 336 336 335 334 334 334 334 334 334 334 333 331 330 330 330 331 331 326 324 327 328 327 326 325 326 328 326 325 326 327 327 328 328 329 330 330 329 329 329 329 328 327 327 327 327 328 328 327 327 327 327 326 326 326 326 325 325 325 324 322 320 320 319 317 315 315
336 337 338 338 337 335 335 336 336 335 335 335 336 336 335 333 333 334 335 336 336 335 335 334 334 333 333 334 333 332 331 330 330 330 331 331 326 324 326 326 326 326 326 327 326 324 324 326 327 327 328 329 330 330 329 329 329 329 329 328 327 326 326 326 326 327 326 326 326 326 326 326 326 326 326 325 324 323 322 321 321 320 318 317 315
335 335 336 337 336 335 335 335 335 335 334 335 336 336 336 335 334 334 335 335 334 333 334 334 334 333 333 333 332 331 331 331 330 331 331 330 327 325 326 326 326 327 327 328 326 323 325 326 327 328 328 329 330 329 329 329 329 329 328 328 328 327 326 326 325 326 325 325 326 325 326 327 326 326 325 324 322 321 322 321 321 321 320 318 314
333 333 334 335 335 335 334 334 334 334 334 334 332 332 334 335 335 335 335 334 333 332 332 332 332 333 333 332 332 331 331 330 330 331 331 330 328 326 326 326 326 326 327 328 326 324 326 326 327 328 328 328 329 329 329 329 329 329 328 328 329 328 327 327 326 326 325 325 325 325 326 327 327 326 325 322 320 320 321 320 320 320 320 318 311
332 332 332 333 334 334 334 334 334 334 334 334 330 327 330 333 334 335 334 332 332 332 331 330 330 331 331 332 331 331 330 330 330 330 331 330 328 326 325 326 326 326 327 328 326 323 324 326 326 328 328 328 328 328 329 329 328 329 328 328 328 328 328 327 326 326 325 325 325 325 326 326 326 326 324 321 319 319 320 319 317 316 315 314 308
332 332 331 330 332 333 334 334 334 335 335 333 330 328 330 333 333 332 330 328 329 330 328 329 331 330 330 331 331 330 331 330 329 330 330 330 328 326 325 325 326 326 327 327 326 323 323 325 326 327 328 328 328 328 328 328 328 328 329 328 328 328 328 327 326 325 325 325 325 325 326 326 326 326 323 320 318 318 319 317 315 314 312 310 306
Wind_Speed
25 25 23 24 22 20 19 17 16 16 17 18 19 19 18 18 17 16 15 15 14 14 14 13 13 12 12 12 12 12 12 11 10 11 12 13 15 16 19 22 22 22 22 21 20 19 19 18 17 18 19 19 20 19 19 20 19 19 19 18 17 17 17 17 16 17 17 17 16 16 17 16 16 15 15 15 15 14 14 13 12 12 12 12 11
29 26 25 25 23 20 19 17 15 16 18 18 19 18 18 17 16 16 16 15 15 14 14 14 13 13 13 12 12 12 12 11 11 11 12 13 14 16 19 21 22 22 22 22 21 20 20 20 19 19 20 20 21 21 20 20 20 20 20 18 17 17 17 17 16 16 17 17 16 17 17 16 16 15 14 14 13 13 12 12 12 12 12 11 11
30 27 26 26 23 21 20 18 15 17 18 18 18 18 18 17 17 17 17 16 15 14 14 14 14 13 13 13 13 13 12 11 11 12 12 13 14 16 18 21 22 23 23 23 22 21 21 21 21 20 21 21 22 22 21 21 20 20 19 17 16 17 16 16 15 15 15 15 15 16 16 16 16 14 13 13 11 11 10 9 10 10 9 8 8
29 27 27 26 23 21 20 18 16 17 18 18 18 17 18 18 18 17 16 16 15 14 14 14 14 13 13 13 13 13 12 12 12 12 13 12 13 16 18 20 22 23 23 23 23 22 21 21 21 21 21 22 22 21 20 20 19 18 18 16 16 16 15 14 14 13 12 12 12 12 13 14 14 13 11 10 8 8 7 6 7 6 4 3 4
29 27 26 26 23 21 21 19 16 17 18 18 17 16 17 18 18 17 16 16 15 14 14 14 13 13 13 13 13 13 12 12 12 12 12 12 13 15 17 19 20 22 23 23 23 22 21 20 21 20 20 20 19 19 18 18 17 16 16 14 13 13 12 11 11 10 9 8 7 7 7 9 10 9 7 6 5 5 5 5 5 3 3 4 7
28 27 26 26 23 22 21 20 17 17 17 16 16 15 16 17 17 17 16 15 15 14 14 14 13 13 12 13 13 12 12 12 12 11 12 12 12 14 16 17 19 21 22 21 22 22 21 20 19 19 18 17 16 16 16 16 15 15 15 13 12 11 11 10 9 8 7 6 4 4 5 5 6 6 5 5 5 6 6 7 7 7 8 10 13
27 27 26 25 23 22 22 21 19 17 16 16 15 14 15 16 17 16 16 15 15 15 14 14 13 13 12 12 12 12 12 12 11 11 12 12 12 13 15 16 18 20 20 20 20 21 21 20 18 17 16 15 15 15 15 15 13 12 13 13 13 13 12 11 9 7 5 5 5 5 5 6 7 8 8 9 10 10 10 12 14 14 13 14 16
26 26 26 25 24 23 22 22 20 18 16 16 15 14 14 15 17 16 16 15 15 15 14 14 13 13 12 12 12 12 11 11 10 11 12 12 11 13 14 15 17 19 20 20 20 20 20 18 17 16 15 15 15 15 15 14 12 12 14 14 13 13 12 11 10 8 7 7 9 10 10 10 11 13 13 13 14 14 14 15 16 15 15 16 17
26 25 25 24 24 23 22 23 21 19 18 17 15 14 13 15 16 16 16 16 15 15 15 14 13 13 12 12 12 11 11 10 10 10 10 11 11 12 14 14 16 18 19 19 19 19 18 17 15 14 13 13 14 15 15 14 13 14 14 13 12 12 11 11 11 10 10 10 11 11 12 14 14 15 15 16 17 16 15 15 16 16 16 17 18
25 24 24 24 24 23 22 23 22 20 19 18 16 15 14 14 16 16 16 16 16 15 15 14 13 13 12 12 12 11 10 10 9 9 10 11 11 12 13 14 15 16 17 18 18 18 17 16 14 12 11 12 13 15 15 14 14 15 14 13 12 12 12 12 12 12 12 11 12 13 13 15 15 16 17 17 17 17 16 16 18 19 18 18 18
23 23 24 23 24 23 22 23 23 22 20 18 17 15 14 14 15 15 15 15 16 15 14 14 13 13 12 12 11 11 10 9 9 9 10 11 11 12 13 13 15 16 17 17 18 17 16 14 12 10 11 14 16 17 17 16 15 15 14 13 13 13 12 13 12 12 13 13 14 15 16 16 17 18 18 18 18 18 17 17 18 19 18 17 18
24 23 23 23 23 23 22 22 23 22 20 18 17 16 15 14 14 14 14 14 14 14 13 13 12 12 12 11 11 11 10 9 9 9 9 11 11 12 12 13 15 16 17 17 17 16 14 13 11 10 14 18 18 18 17 17 16 15 15 15 14 13 12 13 13 14 14 13 13 15 17 17 17 18 17 18 19 18 17 17 18 18 18 17 17
24 24 24 24 23 23 22 21 22 22 20 18 17 16 15 14 13 12 12 12 12 12 12 12 11 11 11 11 11 11 10 9 9 9 9 11 11 11 12 12 14 16 17 17 16 14 13 11 9 10 15 18 18 17 17 17 16 16 16 16 15 14 13 14 14 14 14 13 14 16 17 17 17 18 17 18 19 18 18 18 18 18 18 18 18
25 25 25 24 24 23 21 21 20 21 20 17 17 16 15 13 12 11 11 11 11 11 10 10 10 10 10 10 10 10 10 10 10 10 9 11 12 11 12 13 14 16 17 17 16 14 11 9 8 9 14 17 17 16 17 16 16 16 16 16 16 15 15 15 15 14 13 12 13 15 17 17 18 18 18 18 18 19 19 18 18 18 18 18 18
23 24 24 24 24 23 22 21 20 20 20 19 17 16 15 13 12 11 10 10 10 9 9 8 8 8 8 8 8 9 10 10 11 10 10 10 12 12 12 13 14 15 17 17 16 14 11 9 7 7 10 14 15 15 15 15 15 15 16 16 16 16 16 16 16 14 12 11 12 14 16 17 17 17 18 18 18 19 19 19 18 17 17 17 17
22 23 22 22 22 23 22 21 21 20 21 20 18 16 15 13 12 11 10 10 9 9 8 7 7 6 6 6 7 8 9 10 11 11 10 10 11 12 12 13 15 16 17 17 16 14 11 9 7 6 7 11 13 13 13 13 13 14 15 16 16 16 16 15 15 14 12 11 12 13 14 15 15 16 17 17 18 18 18 18 18 17 17 16 16
21 22 21 21 21 21 21 20 20 20 20 20 19 17 15 13 11 11 10 10 9 8 8 7 6 5 5 5 6 7 9 10 11 11 11 10 10 11 12 13 14 16 17 17 16 15 12 10 8 6 6 8 10 11 11 12 12 14 14 15 15 16 16 14 14 13 13 13 13 13 14 14 14 15 16 16 17 16 16 16 16 16 15 14 14
21 21 21 20 20 20 19 19 19 20 20 20 19 17 15 13 11 12 11 10 9 8 7 6 6 5 5 5 5 6 8 9 10 10 11 11 10 10 12 13 14 16 17 17 17 15 13 11 9 7 6 6 8 9 10 11 11 13 14 14 15 15 15 14 13 12 12 12 12 13 13 13 13 14 14 14 14 14 14 14 14 14 14 13 13
19 18 18 18 18 19 19 18 19 20 20 20 20 18 16 14 13 13 12 11 10 8 7 6 6 6 5 5 5 6 7 7 7 9 10 10 11 10 10 12 13 15 17 18 17 16 14 12 10 8 7 6 7 8 9 10 11 12 13 14 15 15 15 14 13 12 11 11 11 11 11 11 12 12 13 13 13 13 13 13 12 12 12 12 11
17 16 16 16 16 17 19 19 19 19 20 21 20 19 17 15 14 13 12 11 10 9 8 7 7 7 7 7 7 8 8 7 7 8 9 10 10 10 10 10 12 14 16 19 19 17 16 13 11 10 8 7 7 7 8 9 10 11 13 13 14 15 14 14 12 11 10 10 10 11 11 11 12 12 12 12 12 11 11 11 11 10 10 10 10
17 17 15 15 16 17 20 20 20 20 20 20 20 18 16 15 14 14 12 11 10 10 9 9 9 8 8 8 8 9 10 10 10 9 8 9 10 9 9 9 11 12 14 19 21 19 17 15 13 11 9 7 7 7 7 9 9 10 11 12 13 14 14 14 13 11 10 10 10 10 11 11 11 12 12 11 11 11 11 11 10 10 10 10 10
19 18 17 17 18 19 20 21 21 20 20 20 19 18 17 16 15 15 13 11 11 11 11 10 10 9 9 8 8 9 10 11 11 10 9 8 8 9 9 9 10 12 14 19 22 21 19 17 14 12 10 7 7 7 7 8 8 9 9 11 12 13 14 14 13 12 11 10 9 9 10 10 11 11 11 10 11 10 10 10 10 10 10 10 10
21 19 18 19 20 21 21 21 21 20 20 19 19 19 18 17 16 16 15 14 13 12 12 11 11 10 9 8 8 9 10 12 12 11 10 9 9 9 9 9 10 12 14 19 23 22 21 18 16 14 11 8 7 7 7 7 7 7 8 9 10 11 12 13 13 12 11 10 9 9 9 9 9 10 10 10 10 10 10 10 10 10 10 10 9
21 19 20 21 21 21 21 20 20 19 19 19 19 19 18 18 17 17 17 16 15 13 12 12 11 10 10 10 10 11 11 13 13 12 11 11 10 9 9 10 11 13 15 20 24 24 22 20 17 15 12 9 8 6 6 6 5 5 6 7 8 9 11 12 13 12 11 10 9 9 9 8 8 8 9 9 10 10 10 10 10 10 10 9 9
21 20 21 22 21 20 19 19 19 19 19 19 19 19 19 19 18 18 17 17 15 14 13 13 13 12 11 11 12 12 12 14 14 13 12 11 10 10 9 9 11 14 16 19 24 25 23 21 18 16 14 11 8 6 5 5 3 3 4 6 7 8 9 11 12 12 11 10 9 8 8 7 7 7 8 8 9 10 10 10 9 9 9 9 9
20 22 21 21 19 19 18 19 19 19 19 18 19 20 20 20 19 19 18 17 16 15 14 14 14 12 12 12 13 13 14 15 15 14 13 12 11 10 11 10 10 14 17 19 24 26 24 22 19 17 15 12 9 6 4 4 2 1 3 5 6 7 8 9 10 10 10 9 9 8 7 7 6 6 7 8 9 10 10 9 9 9 9 9 10
20 21 21 20 19 19 18 19 20 19 19 18 19 20 21 21 20 20 19 17 17 16 15 15 14 13 13 13 14 14 15 15 15 14 13 12 10 9 11 12 11 14 18 19 23 26 25 23 21 19 16 13 10 7 5 4 3 1 1 3 5 6 7 7 8 9 9 9 8 8 7 6 5 5 6 7 9 10 10 10 9 9 9 10 11
19 21 21 20 19 18 19 20 19 18 18 18 19 20 21 21 21 20 20 18 18 17 17 16 14 13 14 14 14 14 15 15 15 14 13 12 10 9 11 13 13 15 19 20 22 26 27 25 22 20 17 15 12 9 7 5 4 2 1 1 3 4 5 5 7 8 8 8 8 7 6 5 3 4 7 8 10 11 11 11 10 10 11 11 11
20 21 20 20 19 18 19 20 19 18 18 19 19 19 19 19 20 21 20 19 19 18 17 17 15 15 15 15 15 15 15 15 15 14 13 12 10 10 12 13 14 16 19 21 21 24 28 27 24 22 19 16 14 11 9 7 5 3 2 0 2 3 4 4 6 7 7 7 7 6 5 3 1 4 8 10 11 12 12 12 11 11 11 11 11
19 20 19 19 19 19 19 19 18 18 19 19 18 18 18 18 19 19 19 18 19 19 18 17 16 15 15 15 15 16 15 15 14 14 13 12 11 11 12 14 14 16 19 22 21 21 27 28 26 23 20 18 15 13 11 8 6 4 2 1 1 2 2 3 5 6 6 6 6 5 4 2 2 5 8 10 12 12 12 12 11 11 10 10 9
19 20 18 18 19 20 19 18 18 18 18 18 17 17 16 17 18 18 18 18 17 18 18 17 16 15 15 15 16 16 16 15 14 14 13 12 12 12 12 13 14 15 18 22 22 21 25 28 27 24 21 19 17 15 12 9 7 5 4 3 3 2 2 3 5 5 5 5 5 4 3 1 3 6 9 10 10 10 9 8 7 8 8 8 8
17 18 18 19 20 20 19 19 19 18 18 17 17 17 16 16 17 16 17 17 16 16 17 16 15 15 14 15 15 16 16 15 15 14 13 13 13 12 12 12 13 14 17 22 24 22 24 27 27 24 21 20 18 16 14 11 8 6 5 4 4 3 3 3 4 4 3 4 4 3 2 2 4 6 8 10 10 8 7 5 4 4 4 4 5
15 16 18 19 19 20 20 20 20 20 19 18 18 18 17 16 15 15 16 16 15 15 15 14 14 14 14 15 15 16 16 16 16 15 14 14 14 13 12 11 12 14 16 21 25 24 24 26 27 24 22 21 20 18 15 13 10 7 6 5 5 5 4 3 3 2 2 2 3 3 2 3 4 6 8 11 10 8 7 4 3 2 2 2 2
16 16 18 18 18 19 21 21 21 22 21 19 19 18 17 15 14 14 15 14 14 14 13 13 13 14 15 15 15 16 17 17 17 16 16 15 15 14 13 11 11 13 16 21 25 25 25 25 26 24 23 22 20 18 16 14 11 9 7 6 6 6 5 4 2 1 1 1 2 2 3 4 6 7 9 10 8 7 6 4 3 3 2 1 1
18 16 16 17 17 18 21 21 22 23 22 20 20 19 17 16 15 14 14 14 13 13 13 13 13 13 14 15 16 17 17 17 18 18 17 17 16 15 13 12 12 14 16 20 24 24 24 25 25 24 24 23 20 18 16 14 11 9 7 7 7 7 6 4 3 3 2 2 3 3 4 5 6 7 8 8 7 6 5 4 3 3 2 2 1
20 18 17 17 16 16 18 20 22 23 22 22 20 19 18 17 16 15 14 14 13 14 14 13 14 14 14 15 15 17 17 17 18 19 19 18 18 16 14 14 14 15 17 20 23 24 24 24 24 24 24 23 20 17 15 13 11 9 7 7 8 8 7 6 5 5 5 5 5 4 4 6 7 7 7 7 6 5 4 3 3 2 2 1 1
20 20 19 18 16 15 17 19 22 22 23 23 22 20 19 18 16 16 15 15 15 15 15 15 15 16 16 16 15 16 17 18 18 20 20 18 18 18 16 16 16 16 17 19 22 23 24 23 22 22 22 21 18 16 15 13 11 9 8 8 9 9 9 8 7 7 7 7 6 5 6 7 7 7 7 6 6 5 4 3 2 2 1 1 1
19 21 21 19 16 16 17 19 21 22 22 23 22 21 20 19 17 17 17 16 16 16 16 17 17 18 18 17 16 17 18 18 19 20 19 17 19 20 19 18 18 18 19 19 20 22 23 23 22 22 22 19 16 15 15 14 11 9 9 9 11 11 10 9 9 9 9 9 8 7 7 7 7 6 6 6 5 3 2 1 1 1 1 1 1
19 20 21 19 17 17 17 18 20 22 23 24 22 21 20 20 19 19 18 19 18 18 18 18 19 19 19 18 18 18 19 19 19 21 19 19 20 21 20 20 20 21 21 20 20 20 22 23 22 22 22 19 16 14 14 13 11 10 11 11 12 12 11 10 10 10 10 10 8 8 8 7 7 7 6 5 4 2 2 2 1 1 1 1 1
21 21 22 21 19 19 18 19 21 24 25 25 21 19 21 21 21 21 21 21 20 20 20 20 20 20 20 19 19 19 19 19 20 21 20 21 21 21 22 23 23 23 22 21 20 21 21 22 22 22 21 18 16 15 12 12 11 11 12 11 12 13 11 11 11 10 11 11 9 9 8 7 6 7 6 5 4 3 3 2 2 1 2 2 2
22 22 23 23 21 21 21 21 23 25 26 25 21 18 20 21 21 22 23 22 22 22 21 21 21 21 21 21 20 20 19 20 21 21 21 21 21 21 23 24 25 25 22 20 20 21 20 19 19 20 19 18 17 15 13 12 12 13 13 12 12 11 10 11 11 10 12 12 11 10 8 7 7 7 7 6 4 4 3 3 2 3 3 3 2
22 21 22 22 21 21 22 23 24 26 26 24 22 21 22 22 22 23 24 24 23 23 22 21 21 22 22 22 22 20 19 20 21 20 21 21 21 22 23 24 25 24 22 20 20 19 19 17 16 16 17 18 16 14 14 14 14 14 14 13 12 10 9 11 11 11 12 12 12 11 9 8 8 8 8 7 5 4 4 3 4 4 4 4 3
22 22 22 22 21 21 22 24 24 25 25 23 22 23 23 23 24 24 25 25 23 23 22 22 22 22 22 23 22 19 17 18 18 19 20 19 21 22 22 22 24 25 22 21 20 19 18 17 15 14 16 16 14 14 15 15 15 15 14 12 12 11 9 10 13 13 13 12 11 10 9 9 9 9 8 7 5 4 4 4 5 5 4 4 5
21 21 22 21 21 22 23 23 23 24 24 23 23 23 23 24 25 25 26 26 24 23 22 23 23 23 23 22 20 17 16 16 16 17 18 17 17 20 24 25 24 24 21 21 21 19 17 16 14 14 15 15 13 15 15 15 16 15 14 12 12 12 10 10 13 14 13 13 12 11 10 10 9 9 8 7 6 5 5 5 5 5 4 5 5
21 21 22 22 22 22 23 24 24 24 23 23 24 23 23 24 26 26 27 27 26 24 23 23 23 23 22 20 18 18 17 17 16 16 16 15 11 11 19 22 22 21 20 21 20 17 15 15 14 14 14 14 13 13 14 15 16 15 14 12 10 11 13 14 13 12 13 14 13 12 10 9 9 8 8 7 6 6 6 6 5 4 4 5 4
21 22 22 22 22 22 23 24 24 24 23 23 24 25 26 27 27 26 27 28 27 26 24 24 23 21 21 19 18 18 18 17 16 16 15 14 11 10 13 16 18 19 19 19 17 15 14 14 14 16 15 14 13 12 13 14 16 17 16 15 10 8 11 15 14 12 13 13 13 12 10 10 10 9 9 8 7 7 7 7 6 4 4 4 3
20 22 23 22 22 22 23 25 26 25 23 22 22 24 26 27 27 26 26 28 29 27 25 25 24 20 19 20 19 18 17 17 16 16 15 15 13 12 13 14 16 17 17 17 16 14 14 14 15 16 14 14 14 12 12 13 16 18 18 18 15 9 7 9 12 12 13 13 13 12 11 10 10 10 10 9 8 8 8 7 6 5 4 2 2
19 19 21 22 23 22 22 24 25 25 22 21 21 23 26 27 27 26 25 26 29 28 26 27 25 20 18 19 19 18 17 17 17 16 15 17 15 13 14 15 15 16 15 15 15 15 15 15 15 15 13 14 14 11 11 13 15 18 19 19 18 14 9 7 7 9 11 14 15 14 12 11 11 12 12 10 9 9 9 8 6 5 3 1 1
17 17 18 21 23 22 22 22 23 23 22 21 21 23 27 29 28 26 24 23 27 28 27 28 25 19 17 18 19 18 17 17 17 16 15 18 17 14 15 15 14 15 14 13 15 15 15 15 16 15 14 14 13 11 12 13 14 16 18 19 19 17 14 10 7 8 11 13 15 17 16 14 15 14 13 11 10 10 10 8 6 4 3 2 2
15 18 19 22 23 22 23 23 22 22 21 20 20 22 26 28 26 24 23 22 23 24 25 27 25 20 16 16 19 19 17 18 18 17 17 19 18 16 16 16 14 14 14 14 16 17 16 15 15 15 15 13 12 12 13 12 12 14 17 19 20 19 16 14 12 10 11 12 13 17 17 16 17 17 14 11 11 12 11 8 6 4 4 4 3
11 15 18 21 22 22 24 24 23 22 22 21 22 23 25 27 25 22 22 23 23 23 23 25 25 23 17 15 18 19 18 17 18 18 18 19 18 17 17 16 15 15 16 17 18 19 18 16 15 15 15 14 13 13 13 13 13 15 17 18 19 19 17 15 13 10 11 13 13 15 17 17 16 17 15 13 13 12 11 9 7 6 5 5 5
Wind_Direction
171 173 170 168 169 167 169 169 167 163 161 162 160 159 160 162 167 171 175 174 168 161 156 153 153 152 148 141 131 120 109 103 103 101 91 84 89 99 106 107 109 112 112 110 106 101 99 102 104 105 105 106 107 105 105 105 105 105 105 104 104 105 104 102 101 100 100 100 99 98 97 98 98 97 98 97 95 93 91 89 87 82 77 70 64
170 173 170 168 168 167 168 169 167 161 161 162 160 160 159 162 165 167 168 166 162 157 153 150 151 150 146 138 130 120 112 110 107 100 92 87 89 97 107 110 113 116 116 112 108 102 98 101 104 105 105 105 105 103 103 103 103 102 101 103 105 104 102 102 102 102 101 100 100 97 96 97 96 94 94 93 93 91 90 91 89 85 84 79 75
167 170 170 168 167 167 167 169 166 160 161 162 161 161 160 162 162 163 162 161 159 155 152 151 151 149 145 137 131 124 118 114 104 99 95 89 92 98 107 113 116 120 119 116 113 108 102 101 103 104 104 103 103 103 101 102 104 104 103 103 103 102 102 103 102 101 100 99 99 99 100 99 95 93 92 90 93 96 95 99 97 95 94 89 88
166 167 168 167 166 167 166 168 166 160 161 162 162 162 161 162 161 161 160 159 157 153 152 152 152 149 145 139 135 130 123 114 105 101 98 93 94 101 109 115 118 123 123 120 117 113 109 106 104 104 105 105 104 105 104 104 104 104 102 100 99 99 100 98 96 96 95 95 97 103 105 106 104 102 102 102 107 112 109 111 110 107 105 97 89
166 166 167 167 166 166 166 168 166 161 161 163 162 161 163 163 162 160 158 158 155 153 153 153 153 149 147 144 140 133 124 115 106 100 99 97 95 99 108 115 119 126 127 124 122 119 116 113 110 110 109 107 107 110 109 107 104 103 100 98 94 91 92 92 93 94 95 97 100 109 112 116 119 121 128 130 135 136 123 121 126 120 108 92 84
167 168 168 167 167 166 167 168 167 163 162 163 161 161 163 165 163 161 158 157 155 153 153 154 153 151 150 148 143 134 126 118 110 105 103 99 96 96 103 113 120 127 129 126 126 126 124 121 119 119 118 115 115 115 111 104 101 102 102 99 94 91 92 93 94 95 98 102 110 123 127 133 139 140 137 129 126 127 113 106 103 91 89 91 89
169 170 170 169 169 168 169 170 168 165 163 164 163 162 163 165 164 162 159 157 157 156 156 156 154 151 151 149 143 137 131 123 115 111 111 105 100 98 101 112 121 127 130 128 129 132 132 130 129 128 126 123 118 111 106 104 103 105 105 103 99 95 92 89 88 88 93 94 99 111 123 134 133 117 103 100 101 103 99 95 94 91 90 92 92
172 172 172 172 172 171 172 171 170 167 166 167 166 165 163 165 165 164 162 160 160 159 159 158 155 152 151 151 146 142 136 128 121 113 114 112 107 104 105 113 122 129 133 134 134 135 135 133 132 130 127 122 115 110 108 108 106 105 106 104 98 93 88 84 83 84 91 92 93 97 103 105 105 97 92 94 93 95 97 95 98 100 98 95 95
175 175 174 174 175 174 174 174 172 170 170 170 170 168 163 164 166 166 164 164 163 163 164 162 158 155 154 153 150 146 139 134 127 118 111 109 113 111 109 115 123 130 134 136 135 134 133 131 130 129 129 122 114 111 109 107 102 100 101 100 95 89 84 80 79 84 89 90 91 94 98 98 97 95 92 94 94 95 95 92 95 96 95 92 91
178 177 176 178 178 177 177 176 175 174 174 173 172 169 163 163 165 167 166 165 166 167 167 165 162 158 157 155 153 151 147 142 132 123 111 104 113 114 110 117 125 130 132 133 133 133 134 133 133 134 129 118 113 111 110 106 100 96 94 93 90 84 80 78 79 84 88 89 94 95 96 99 100 98 96 97 97 97 92 88 90 88 86 86 85
180 179 179 181 181 181 180 179 179 179 177 175 175 170 166 164 164 167 166 166 167 168 169 168 166 162 160 157 156 156 154 150 138 130 118 107 114 117 115 120 126 132 133 133 134 135 137 137 137 132 116 109 111 111 108 103 96 90 85 83 79 77 76 78 81 85 89 92 96 97 97 99 98 96 95 95 94 92 87 84 88 88 86 85 84
182 182 181 185 185 184 183 183 182 183 180 177 176 172 169 165 162 163 163 164 164 165 169 170 168 166 164 160 158 160 161 156 146 139 129 118 119 123 122 125 131 136 137 137 137 137 138 138 136 120 108 108 108 106 102 96 90 82 76 73 71 70 73 79 84 86 90 92 96 101 101 99 96 95 94 93 93 92 88 86 90 91 90 89 86
184 184 183 186 188 186 186 185 185 186 183 179 178 176 172 168 162 159 158 157 157 159 163 167 166 167 167 164 163 164 166 162 155 150 141 127 125 130 130 132 137 141 142 141 140 140 140 139 133 115 108 107 104 100 95 89 82 75 70 67 66 67 72 80 84 85 88 89 93 99 98 93 91 92 91 90 92 93 91 89 89 89 88 88 86
185 186 185 186 187 187 187 187 187 188 186 183 182 181 176 171 165 160 158 153 153 153 154 158 158 163 168 168 167 166 169 167 163 162 153 134 127 134 138 140 143 147 146 145 144 144 145 143 138 120 110 106 101 97 91 84 78 73 70 65 65 69 71 74 78 82 86 87 89 93 93 89 87 88 88 86 87 88 88 88 87 87 86 86 86
189 187 186 184 185 186 187 188 188 188 188 187 186 184 180 176 171 166 161 157 155 154 151 150 149 155 164 169 168 164 167 168 169 170 164 145 133 136 144 146 149 153 152 150 150 150 152 154 152 133 113 106 101 94 87 83 79 76 72 68 68 71 72 71 72 75 80 85 86 88 90 90 89 89 87 86 85 84 86 87 88 88 88 88 89
193 190 187 184 185 186 187 188 188 189 189 190 189 186 185 181 177 172 167 165 161 156 153 150 148 150 157 165 163 160 164 169 173 175 171 160 143 140 146 151 154 158 158 157 157 157 160 168 170 150 120 108 100 92 86 84 82 79 74 71 70 72 73 72 72 72 73 74 76 78 82 83 84 85 83 83 82 82 84 87 89 90 91 91 90
193 191 189 187 185 185 186 186 186 188 189 191 191 189 188 184 179 178 177 175 168 159 157 155 152 149 151 152 151 158 162 164 170 174 174 168 156 148 147 153 158 161 163 163 163 163 169 180 185 168 135 114 101 92 87 85 82 78 75 73 72 73 72 73 74 73 71 68 66 70 74 75 75 75 76 77 79 81 83 85 87 90 91 91 91
191 190 190 190 187 185 186 187 187 188 189 190 192 191 189 186 183 185 186 183 175 167 164 160 155 150 148 146 149 155 156 161 167 170 173 169 163 159 152 152 157 163 167 168 169 170 176 188 193 183 157 129 108 98 92 87 84 79 77 75 74 73 71 70 72 74 74 69 67 69 72 72 71 71 72 73 76 78 80 82 83 85 88 89 89
187 188 189 191 189 189 191 191 193 191 190 190 192 192 190 190 188 190 190 188 184 179 176 170 164 156 152 150 147 146 151 165 170 169 171 168 164 163 158 154 156 162 168 172 174 175 182 193 197 192 174 148 124 111 103 95 89 82 78 76 75 74 71 68 68 72 74 73 72 73 73 71 70 71 72 74 75 76 78 78 79 80 83 85 85
183 188 190 193 194 195 198 197 195 193 192 191 191 191 189 190 191 192 193 191 189 188 186 181 175 165 160 157 152 155 164 173 177 181 176 168 164 160 159 157 155 159 167 175 178 179 186 196 200 197 185 162 141 126 114 103 95 85 78 77 75 73 72 69 67 67 68 71 73 75 74 71 71 71 72 73 74 74 74 75 77 79 79 78 78
184 188 189 194 197 199 200 197 194 194 194 191 190 189 188 190 192 193 194 194 191 190 189 184 182 175 170 168 166 171 176 179 185 198 192 175 166 158 158 156 155 156 165 176 179 181 188 198 202 201 193 171 152 140 124 108 99 88 78 76 73 71 69 66 65 64 63 66 69 75 76 75 74 74 74 73 73 71 71 74 77 79 79 79 77
186 185 185 192 194 197 197 195 195 194 193 192 189 188 189 190 193 196 196 197 194 191 188 185 186 185 186 186 187 188 189 188 191 203 203 189 177 164 158 155 156 156 163 176 180 182 188 197 203 204 198 178 158 146 132 112 99 87 75 71 67 65 63 61 61 60 60 57 59 67 73 76 77 79 79 76 76 75 75 78 79 81 81 80 78
187 182 183 191 193 194 195 194 194 193 192 191 190 191 193 192 196 199 200 203 200 196 193 193 193 194 201 208 213 208 202 196 194 204 209 201 190 176 163 156 159 158 164 175 180 183 188 196 202 206 204 188 169 154 137 115 101 87 73 66 60 58 57 55 54 56 58 54 50 51 56 66 75 80 82 81 81 82 81 82 83 83 81 81 80
188 186 186 191 193 193 194 194 194 192 191 191 193 196 196 198 200 202 204 206 206 202 200 202 201 203 209 216 221 215 206 198 195 202 210 208 200 189 174 164 164 164 167 176 181 185 189 194 200 205 207 202 189 169 141 115 104 91 78 68 58 52 50 49 47 49 54 54 51 47 45 52 66 77 82 84 84 84 82 83 84 84 84 83 81
187 189 191 193 194 195 196 195 194 193 193 194 195 197 198 200 202 203 206 206 207 206 204 206 206 208 212 216 219 212 202 198 196 198 208 216 212 207 195 178 170 169 170 177 183 186 189 193 199 205 207 209 208 188 148 123 113 95 88 77 63 51 47 46 45 45 46 49 50 48 46 48 56 66 77 84 87 88 87 86 85 84 84 82 80
187 188 191 195 196 197 198 196 195 195 196 197 199 199 200 202 203 204 205 204 206 207 207 208 205 206 211 214 215 209 201 199 199 200 209 220 222 221 217 202 181 173 172 177 185 187 190 193 198 204 207 210 214 205 170 147 145 113 96 81 68 53 46 47 47 45 41 41 41 40 39 43 52 61 74 87 94 97 97 96 92 88 87 84 83
188 190 191 193 196 196 196 197 198 197 197 200 202 203 203 204 204 205 207 207 207 207 208 207 205 207 210 211 213 210 204 203 204 206 211 216 221 221 218 213 192 177 175 176 185 190 192 195 198 203 207 210 215 213 198 179 179 172 117 77 69 59 50 48 44 39 34 31 30 30 29 34 51 69 82 95 103 103 102 101 98 95 93 90 88
188 193 193 192 194 193 193 197 198 196 197 200 203 203 205 205 205 207 209 209 210 209 209 209 210 209 207 207 212 214 211 210 210 212 214 212 215 211 207 210 197 182 179 177 183 191 196 198 200 202 205 209 214 215 212 206 200 191 172 58 58 59 55 47 37 30 25 23 21 20 22 27 52 100 112 112 108 106 103 100 98 96 93 91 91
187 193 198 195 193 194 194 196 196 196 199 200 201 202 205 206 207 210 208 208 209 208 209 212 213 209 206 206 210 215 216 217 216 215 215 212 211 206 202 205 198 186 183 181 182 190 197 200 202 202 203 207 212 213 214 221 222 212 198 90 35 38 45 39 25 22 21 21 18 11 14 22 71 127 125 119 111 107 103 98 95 92 89 88 89
187 193 203 202 197 198 197 197 197 199 200 200 200 202 205 208 210 211 207 209 209 207 209 213 215 212 209 208 211 217 220 221 220 219 217 213 211 209 206 205 199 190 186 185 183 189 196 200 202 202 201 204 209 212 216 225 229 227 224 232 294 340 10 16 11 12 17 21 20 13 15 29 120 121 116 115 112 106 97 90 85 84 85 87 87
190 196 205 208 206 204 201 200 202 203 202 201 201 204 207 208 211 210 208 212 211 209 211 214 217 216 214 213 215 218 221 223 223 223 221 216 214 215 212 207 202 196 190 186 186 190 194 198 202 201 200 202 206 211 217 224 228 237 245 247 259 289 324 350 359 1 9 19 28 28 32 84 137 128 123 122 116 105 92 83 77 74 79 82 83
193 199 206 211 212 209 205 205 207 207 206 205 204 206 209 210 211 211 212 216 217 216 218 219 220 219 218 219 220 221 223 225 225 226 226 221 219 220 216 211 207 203 197 189 188 192 194 197 200 200 198 200 205 211 216 220 223 240 250 252 258 276 302 330 348 353 359 14 43 56 76 138 147 140 136 131 124 113 102 97 90 80 77 74 75
198 202 209 213 217 216 212 211 213 213 213 211 208 209 211 213 214 214 217 220 221 225 228 229 228 226 225 226 226 225 225 227 227 228 228 226 224 224 222 218 213 210 205 193 190 193 195 197 198 199 199 201 206 211 216 218 219 230 245 257 262 272 286 304 329 338 341 13 58 79 109 138 132 127 129 130 129 127 123 124 124 120 116 94 74
209 209 210 214 220 221 219 218 218 219 219 216 215 215 214 215 217 219 222 224 226 229 234 236 235 232 232 232 231 229 228 227 228 229 230 229 227 227 225 223 220 215 210 198 192 194 196 198 199 199 202 204 207 212 217 217 217 224 239 257 265 266 267 269 278 248 260 53 97 118 127 121 116 119 126 132 134 133 132 134 137 143 156 160 172
221 219 213 215 222 222 220 221 222 222 222 221 222 221 219 217 220 224 226 228 229 231 234 237 237 236 237 236 233 232 232 230 229 231 231 230 228 229 226 222 221 216 209 199 195 196 197 200 202 203 205 208 209 213 215 215 215 222 235 254 263 258 250 241 221 198 197 166 155 164 143 124 119 122 129 136 136 133 135 140 141 148 170 188 182
226 226 219 220 227 226 221 222 225 225 224 225 226 226 224 221 222 225 228 231 232 233 236 238 239 238 240 238 234 234 236 234 234 234 232 229 227 228 226 223 220 214 206 199 197 198 199 201 203 205 208 211 212 213 215 215 218 223 233 247 254 251 241 228 209 193 185 174 173 181 157 134 128 130 135 140 140 140 148 151 151 160 176 195 183
230 230 227 226 232 233 227 225 226 226 226 227 227 228 227 225 226 227 229 233 233 236 239 240 241 239 240 240 237 237 240 238 237 238 235 230 227 226 224 222 218 211 204 200 199 201 204 205 205 206 210 213 215 218 218 219 220 224 233 240 244 244 239 223 201 188 182 176 182 187 162 140 136 139 143 145 147 151 155 154 165 182 190 197 202
233 232 230 229 234 238 235 233 233 230 228 229 228 230 231 229 231 232 231 233 235 238 240 241 242 242 241 241 241 241 242 240 240 242 239 232 230 226 222 219 214 208 203 200 200 204 208 209 210 211 212 214 217 221 223 222 223 229 234 237 239 236 232 221 198 186 180 177 186 185 164 150 150 152 152 152 154 153 148 143 153 163 175 185 186
235 234 231 228 231 238 241 243 246 243 238 236 231 230 235 235 234 237 236 235 235 237 240 242 244 245 244 244 244 243 244 244 244 246 242 232 230 228 224 219 212 208 203 199 200 205 209 210 213 215 214 214 216 221 225 225 226 230 232 234 236 229 222 219 203 186 176 177 187 185 170 163 163 164 163 163 160 146 129 125 134 147 161 163 157
239 239 236 232 233 240 247 251 253 253 251 248 240 232 236 239 240 241 241 239 237 237 240 243 246 248 248 247 246 245 246 248 246 247 243 237 233 230 227 221 212 208 204 200 201 207 209 207 209 213 214 215 216 217 220 225 227 228 228 231 232 223 212 213 207 187 176 178 185 187 178 173 175 176 173 172 163 142 125 111 109 118 140 152 157
243 243 239 236 237 242 249 252 253 256 257 257 256 249 246 248 250 250 248 246 241 240 241 244 247 250 252 253 251 248 248 249 248 247 243 241 239 232 227 223 214 207 204 203 205 211 216 213 209 211 216 220 219 215 215 220 225 225 223 223 228 223 209 208 207 195 185 182 185 188 185 181 186 184 179 177 165 145 127 108 108 114 126 141 146
245 242 239 236 235 238 244 249 252 257 259 262 263 260 258 257 260 262 258 255 249 245 246 248 250 253 257 260 257 253 251 249 248 249 248 244 243 236 230 229 221 209 205 206 207 214 222 223 217 214 217 221 220 218 220 220 222 227 226 217 213 213 210 207 207 203 195 189 189 190 187 185 189 187 181 178 172 156 131 118 122 120 121 129 128
244 240 238 239 238 235 239 245 251 257 260 263 263 262 263 260 261 264 263 261 257 254 254 256 257 258 260 262 262 258 255 253 249 252 254 251 248 241 234 234 223 209 205 206 207 214 220 220 220 221 223 221 216 219 224 224 224 226 222 211 202 201 203 203 202 202 198 193 194 196 192 188 188 186 182 178 175 159 135 134 131 121 123 124 119
244 242 243 246 243 237 238 243 249 254 256 259 262 264 266 262 261 263 264 263 262 261 260 261 263 263 265 266 266 263 259 259 255 252 254 252 250 244 236 231 217 205 207 210 210 211 213 215 216 222 228 225 219 219 221 224 228 225 212 199 196 202 202 196 194 196 195 193 199 205 199 189 186 188 184 178 172 151 138 145 136 127 133 132 126
245 245 249 253 250 245 245 247 250 252 252 255 259 262 263 263 263 264 265 264 263 263 261 261 262 265 269 268 264 262 259 258 253 250 251 244 234 230 226 220 210 207 212 217 216 208 206 216 220 222 227 230 229 225 220 221 225 226 220 205 192 200 206 197 186 190 196 195 200 206 200 189 189 194 188 176 167 152 149 153 143 139 145 137 131
248 246 247 251 254 254 255 257 260 261 258 258 260 262 262 261 263 264 265 267 266 264 262 262 262 264 268 265 261 261 261 257 250 249 248 234 212 202 200 197 204 210 211 219 220 209 212 227 230 226 227 229 228 225 224 225 222 220 222 221 215 212 211 201 189 188 195 196 198 198 194 193 193 194 188 174 165 161 161 162 154 156 159 143 130
252 252 251 252 256 259 261 263 266 270 275 277 277 277 274 271 271 271 271 272 271 268 267 265 263 265 265 263 263 264 260 254 249 247 239 222 208 201 194 191 201 204 208 218 219 214 225 238 239 233 230 232 230 227 230 233 226 218 217 222 225 225 220 211 202 197 195 193 194 192 189 191 192 190 184 172 169 169 168 169 164 166 169 154 136
256 261 263 263 265 269 270 269 268 271 280 290 295 296 293 287 284 282 281 281 278 277 276 271 266 264 262 262 264 262 256 250 247 246 233 215 208 204 198 197 200 203 210 214 209 214 227 234 236 234 231 234 235 234 235 235 232 224 217 217 222 226 231 234 223 215 212 199 189 189 189 188 191 188 177 168 169 169 171 173 169 171 177 179 173
267 268 272 271 271 274 276 275 274 271 273 285 294 298 296 290 285 283 282 284 284 283 284 280 276 275 269 265 266 260 253 247 244 243 229 213 211 210 205 203 203 209 216 210 204 215 226 228 229 228 227 231 236 237 235 236 237 231 222 217 219 224 229 234 230 226 225 212 194 190 187 185 188 184 173 167 167 167 173 179 176 179 196 208 196
282 273 269 267 268 272 271 272 277 276 274 277 278 281 285 284 281 279 280 284 283 281 284 285 285 287 279 269 269 265 256 245 240 236 222 211 213 215 212 210 210 216 220 214 208 213 225 230 229 227 226 229 236 238 235 232 233 232 229 223 220 222 226 230 229 224 224 223 211 197 188 186 185 179 173 170 168 169 173 173 166 168 188 195 184
293 281 271 269 272 277 276 276 281 283 279 272 267 269 273 274 274 276 282 285 283 279 282 286 286 286 281 271 267 267 262 247 236 230 220 214 216 216 214 214 217 220 222 218 214 216 224 232 234 231 228 231 235 237 235 230 225 225 228 228 227 229 232 235 237 237 229 219 212 200 190 188 184 178 175 169 166 170 167 158 153 159 171 176 174